GW6383 Weather Reports


Display with metric or nautical units.
time (UTC)temp
F
wind
direction
speed
MPH
gust
MPH
rain 1hr
in
rain 24hr
in
rain mn
in
humidity
%
barometer
mb
20260906194114 103 228 1.0 2.0 0.00 0.00 0.00 32 1014.3
20260906193609 104 225 0.0 1.0 0.00 0.00 0.00 30 1014.2
20260906193104 102 220 1.0 1.0 0.00 0.00 0.00 31 1014.5
20260906192559 103 223 3.0 3.0 0.00 0.00 0.00 30 1014.7
20260906192058 105 215 4.0 4.0 0.00 0.00 0.00 29 1014.6
20260906191554 106 216 1.0 1.0 0.00 0.00 0.00 29 1014.7
20260906191053 104 218 1.0 1.0 0.00 0.00 0.00 30 1014.7
20260906190552 103 223 1.0 1.0 0.00 0.00 0.00 29 1014.7
20260906190047 104 264 2.0 2.0 0.00 0.00 0.00 31 1014.8
20260906185546 102 198 1.0 2.0 0.00 0.00 0.00 32 1015.0
20260906185045 100 250 1.0 2.0 0.00 0.00 0.00 35 1015.1
20260906184540 99 16 1.0 1.0 0.00 0.00 0.00 34 1015.0
20260906184036 99 225 3.0 3.0 0.00 0.00 0.00 35 1015.1
20260906183532 101 236 4.0 6.0 0.00 0.00 0.00 33 1014.9
20260906183027 102 250 6.0 7.0 0.00 0.00 0.00 32 1015.4
20260906182522 103 209 0.0 1.0 0.00 0.00 0.00 30 1015.3
20260906182019 103 225 2.0 3.0 0.00 0.00 0.00 32 1015.6
20260906181514 102 219 1.0 1.0 0.00 0.00 0.00 31 1015.6
20260906181009 103 164 0.0 1.0 0.00 0.00 0.00 30 1015.7
20260906180504 104 227 4.0 4.0 0.00 0.00 0.00 29 1015.9
20260906180003 103 222 1.0 2.0 0.00 0.00 0.00 34 1016.1
20260906175457 103 195 1.0 1.0 0.00 0.00 0.00 32 1016.1
20260906174956 101 222 0.0 1.0 0.00 0.00 0.00 34 1016.2
20260906174455 100 25 1.0 1.0 0.00 0.00 0.00 34 1016.6
20260906173950 100 136 2.0 2.0 0.00 0.00 0.00 35 1016.5
20260906173445 101 222 1.0 2.0 0.00 0.00 0.00 35 1016.8
20260906172945 102 57 2.0 2.0 0.00 0.00 0.00 33 1016.6
20260906172441 101 219 1.0 1.0 0.00 0.00 0.00 34 1016.8
20260906171936 102 237 1.0 1.0 0.00 0.00 0.00 33 1016.9
20260906171431 102 197 1.0 1.0 0.00 0.00 0.00 33 1016.8
20260906170927 101 201 0.0 0.0 0.00 0.00 0.00 34 1017.0
20260906170423 100 207 0.0 0.0 0.00 0.00 0.00 35 1017.0
20260906165919 99 223 0.0 1.0 0.00 0.00 0.00 36 1017.1
20260906165419 98 215 0.0 0.0 0.00 0.00 0.00 37 1017.2
20260906164914 98 215 1.0 2.0 0.00 0.00 0.00 39 1017.3
20260906164412 97 204 0.0 0.0 0.00 0.00 0.00 38 1017.2
20260906163909 96 224 0.0 1.0 0.00 0.00 0.00 39 1017.3
20260906163405 96 241 1.0 2.0 0.00 0.00 0.00 38 1017.2
20260906162902 96 228 2.0 3.0 0.00 0.00 0.00 40 1017.3
20260906162401 96 345 2.0 2.0 0.00 0.00 0.00 38 1017.1
20260906161857 96 231 1.0 1.0 0.00 0.00 0.00 40 1017.1
20260906161355 96 209 1.0 1.0 0.00 0.00 0.00 40 1017.2
20260906160855 95 211 1.0 1.0 0.00 0.00 0.00 39 1017.3
20260906160355 95 225 0.0 1.0 0.00 0.00 0.00 40 1017.4
20260906155853 95 234 2.0 2.0 0.00 0.00 0.00 41 1017.2
20260906155347 94 223 2.0 2.0 0.00 0.00 0.00 41 1017.4
20260906154844 94 223 2.0 3.0 0.00 0.00 0.00 43 1017.3
20260906154343 93 231 1.0 1.0 0.00 0.00 0.00 42 1017.1
20260906153842 92 217 2.0 2.0 0.00 0.00 0.00 43 1017.1
20260906153341 92 223 0.0 1.0 0.00 0.00 0.00 47 1017.2
20260906152837 91 208 2.0 2.0 0.00 0.00 0.00 49 1017.3
20260906152331 90 228 2.0 2.0 0.00 0.00 0.00 48 1017.2
20260906151831 89 222 1.0 1.0 0.00 0.00 0.00 50 1017.3
20260906151326 89 197 0.0 0.0 0.00 0.00 0.00 51 1017.2
20260906150822 88 225 0.0 0.0 0.00 0.00 0.00 51 1017.0
20260906150318 88 206 0.0 1.0 0.00 0.00 0.00 51 1017.2
20260906145817 87 225 0.0 0.0 0.00 0.00 0.00 52 1017.0
20260906145315 87 217 0.0 0.0 0.00 0.00 0.00 53 1016.9
20260906144811 87 191 0.0 0.0 0.00 0.00 0.00 53 1016.9
20260906144306 86 214 0.0 1.0 0.00 0.00 0.00 55 1017.0
20260906143805 86 214 2.0 2.0 0.00 0.00 0.00 55 1016.8
20260906143302 85 201 0.0 0.0 0.00 0.00 0.00 57 1016.8
20260906142802 84 200 0.0 0.0 0.00 0.00 0.00 57 1016.9
20260906142257 84 218 0.0 0.0 0.00 0.00 0.00 59 1017.0
20260906141756 83 214 1.0 1.0 0.00 0.00 0.00 61 1017.0
20260906141251 82 214 0.0 0.0 0.00 0.00 0.00 61 1017.1
20260906140750 82 214 0.0 0.0 0.00 0.00 0.00 63 1017.0
20260906140245 81 214 1.0 1.0 0.00 0.00 0.00 64 1017.1
20260906135742 80 187 0.0 0.0 0.00 0.00 0.00 67 1017.2
20260906135238 79 187 0.0 0.0 0.00 0.00 0.00 70 1016.9
20260906134733 78 187 0.0 0.0 0.00 0.00 0.00 75 1016.9
20260906134228 77 187 0.0 0.0 0.00 0.00 0.00 79 1016.9
20260906133724 76 187 0.0 0.0 0.00 0.00 0.00 79 1016.9
20260906133219 75 187 0.0 0.0 0.00 0.00 0.00 78 1017.0
20260906132714 74 187 0.0 0.0 0.00 0.00 0.00 80 1016.7
20260906132210 74 187 0.0 0.0 0.00 0.00 0.00 82 1016.9
20260906131705 73 187 0.0 0.0 0.00 0.00 0.00 83 1016.7
20260906131200 73 187 0.0 0.0 0.00 0.00 0.00 84 1016.7
20260906130655 73 187 0.0 0.0 0.00 0.00 0.00 85 1016.6
20260906130151 72 187 0.0 0.0 0.00 0.00 0.00 86 1016.5
20260906125649 72 187 0.0 0.0 0.00 0.00 0.00 86 1016.7
20260906125147 72 187 0.0 0.0 0.00 0.00 0.00 86 1016.5
20260906124643 71 187 0.0 0.0 0.00 0.00 0.00 86 1016.4
20260906124138 71 187 0.0 0.0 0.00 0.00 0.00 86 1016.4
20260906123637 71 187 0.0 0.0 0.00 0.00 0.00 87 1016.2
20260906123132 71 187 0.0 0.0 0.00 0.00 0.00 87 1016.0
20260906122632 70 187 0.0 0.0 0.00 0.00 0.00 87 1016.1
20260906122127 70 187 0.0 0.0 0.00 0.00 0.00 86 1016.0
20260906121623 70 187 0.0 0.0 0.00 0.00 0.00 86 1015.7
20260906121120 70 187 0.0 0.0 0.00 0.00 0.00 86 1015.6
20260906120615 71 187 0.0 0.0 0.00 0.00 0.00 86 1015.7
20260906120113 71 187 0.0 0.0 0.00 0.00 0.00 86 1015.7
20260906115612 71 187 0.0 0.0 0.00 0.00 0.00 85 1015.4
20260906115108 71 187 0.0 0.0 0.00 0.00 0.00 85 1015.4
20260906114607 71 187 0.0 0.0 0.00 0.00 0.00 85 1015.5
20260906114103 70 187 0.0 0.0 0.00 0.00 0.00 85 1015.6
20260906113602 70 187 0.0 0.0 0.00 0.00 0.00 85 1015.1
20260906113057 71 187 0.0 0.0 0.00 0.00 0.00 85 1015.1
20260906112557 71 187 0.0 0.0 0.00 0.00 0.00 85 1015.1
20260906112054 70 187 0.0 0.0 0.00 0.00 0.00 86 1015.1
20260906111553 70 187 0.0 0.0 0.00 0.00 0.00 86 1015.2
20260906111049 70 187 0.0 0.0 0.00 0.00 0.00 85 1015.1
20260906110548 70 187 0.0 0.0 0.00 0.00 0.00 85 1015.2
20260906110048 70 187 0.0 0.0 0.00 0.00 0.00 85 1015.1
20260906105543 70 187 0.0 0.0 0.00 0.00 0.00 84 1015.2
20260906105039 70 187 0.0 0.0 0.00 0.00 0.00 84 1015.2
20260906104537 71 187 0.0 0.0 0.00 0.00 0.00 84 1015.1
20260906104032 71 187 0.0 0.0 0.00 0.00 0.00 85 1015.1
20260906103530 71 187 0.0 0.0 0.00 0.00 0.00 85 1015.1
20260906103026 71 187 0.0 0.0 0.00 0.00 0.00 85 1015.2
20260906102526 71 187 0.0 0.0 0.00 0.00 0.00 84 1015.4
20260906102021 71 187 0.0 0.0 0.00 0.00 0.00 84 1015.4
20260906101521 71 187 0.0 0.0 0.00 0.00 0.00 84 1015.3
20260906101016 71 187 0.0 0.0 0.00 0.00 0.00 84 1015.2
20260906100511 71 187 0.0 0.0 0.00 0.00 0.00 84 1015.1
20260906100006 71 187 0.0 0.0 0.00 0.00 0.00 84 1015.1
20260906095501 71 187 0.0 0.0 0.00 0.00 0.00 83 1015.0
20260906094956 71 187 0.0 0.0 0.00 0.00 0.00 84 1015.0
20260906094455 71 187 0.0 0.0 0.00 0.00 0.00 83 1015.1
20260906093951 71 187 0.0 0.0 0.00 0.00 0.00 83 1015.2
20260906093447 71 187 0.0 0.0 0.00 0.00 0.00 82 1015.2
20260906092948 71 187 0.0 0.0 0.00 0.00 0.00 81 1015.1
20260906092447 72 187 0.0 0.0 0.00 0.00 0.00 81 1015.3
20260906091942 72 187 0.0 0.0 0.00 0.00 0.00 82 1015.0
20260906091438 72 187 0.0 0.0 0.00 0.00 0.00 81 1015.0
20260906090935 72 187 0.0 0.0 0.00 0.00 0.00 81 1015.1
20260906090430 72 187 0.0 0.0 0.00 0.00 0.00 81 1015.1
20260906085930 72 187 0.0 0.0 0.00 0.00 0.00 80 1015.1
20260906085429 72 187 0.0 0.0 0.00 0.00 0.00 80 1015.0
20260906084928 73 187 0.0 0.0 0.00 0.00 0.00 80 1015.1
20260906084423 73 187 0.0 0.0 0.00 0.00 0.00 79 1015.1
20260906083922 72 187 0.0 0.0 0.00 0.00 0.00 80 1015.1
20260906083418 72 187 0.0 0.0 0.00 0.00 0.00 80 1015.1
20260906082917 72 187 0.0 0.0 0.00 0.00 0.00 80 1014.9
20260906082413 73 187 0.0 0.0 0.00 0.00 0.00 80 1014.9
20260906081909 73 187 0.0 0.0 0.00 0.00 0.00 80 1014.9
20260906081404 73 187 0.0 0.0 0.00 0.00 0.00 79 1014.8
20260906080900 73 187 0.0 0.0 0.00 0.00 0.00 79 1014.8
20260906080356 73 187 0.0 0.0 0.00 0.00 0.00 78 1015.1
20260906075855 73 187 0.0 0.0 0.00 0.00 0.00 78 1014.9
20260906075350 73 187 0.0 0.0 0.00 0.00 0.00 77 1015.0
20260906074846 73 187 0.0 0.0 0.00 0.00 0.00 78 1014.8
20260906074345 73 187 0.0 0.0 0.00 0.00 0.00 78 1014.7
20260906073844 73 187 0.0 0.0 0.00 0.00 0.00 78 1014.7
20260906073339 73 187 0.0 0.0 0.00 0.00 0.00 78 1014.6
20260906072836 73 187 0.0 0.0 0.00 0.00 0.00 77 1014.7
20260906072331 74 187 0.0 0.0 0.00 0.00 0.00 78 1014.5
20260906071827 74 187 0.0 0.0 0.00 0.00 0.00 77 1014.8
20260906071328 74 187 0.0 0.0 0.00 0.00 0.00 77 1014.5
20260906070824 74 187 0.0 0.0 0.00 0.00 0.00 77 1014.6
20260906070319 74 187 0.0 0.0 0.00 0.00 0.00 76 1014.7
20260906065820 74 187 0.0 0.0 0.00 0.00 0.00 75 1014.7
20260906065315 74 187 0.0 0.0 0.00 0.00 0.00 74 1014.6
20260906064811 75 187 0.0 0.0 0.00 0.00 0.00 74 1014.6
20260906064307 75 187 0.0 0.0 0.00 0.00 0.00 74 1014.5
20260906063807 75 187 0.0 0.0 0.00 0.00 0.00 74 1014.4
20260906063302 75 187 0.0 0.0 0.00 0.00 0.00 73 1014.6
20260906062757 75 187 0.0 0.0 0.00 0.00 0.00 72 1014.5
20260906062256 76 187 0.0 0.0 0.00 0.00 0.00 73 1014.6
20260906061752 76 187 0.0 0.0 0.00 0.00 0.00 73 1014.9
20260906061248 76 187 0.0 0.0 0.00 0.00 0.00 72 1014.8
20260906060743 77 187 0.0 0.0 0.00 0.00 0.00 72 1014.9
20260906060241 77 187 0.0 0.0 0.00 0.00 0.00 70 1014.9
20260906055736 77 187 0.0 0.0 0.00 0.00 0.00 70 1014.9
20260906055231 77 187 0.0 0.0 0.00 0.00 0.00 70 1014.8
20260906054727 77 187 0.0 0.0 0.00 0.00 0.00 70 1014.9
20260906054222 77 187 0.0 0.0 0.00 0.00 0.00 71 1015.0
20260906053718 77 187 0.0 0.0 0.00 0.00 0.00 70 1014.7
20260906053214 77 187 0.0 0.0 0.00 0.00 0.00 69 1014.9
20260906052709 78 187 0.0 0.0 0.00 0.00 0.00 68 1014.9
20260906052205 79 187 0.0 0.0 0.00 0.00 0.00 68 1014.8
20260906051702 80 187 0.0 0.0 0.00 0.00 0.00 65 1015.0
20260906051201 80 187 1.0 1.0 0.00 0.00 0.00 64 1015.0
20260906050656 80 187 0.0 0.0 0.00 0.00 0.00 60 1014.7
20260906050151 80 187 0.0 0.0 0.00 0.00 0.00 63 1014.7
20260906045650 80 187 0.0 0.0 0.00 0.00 0.00 64 1014.8
20260906045145 81 187 0.0 0.0 0.00 0.00 0.00 62 1014.9
20260906044641 82 187 0.0 0.0 0.00 0.00 0.00 61 1014.8
20260906044136 84 187 0.0 0.0 0.00 0.00 0.00 57 1014.9
20260906043632 85 187 0.0 0.0 0.00 0.00 0.00 53 1014.9
20260906043128 86 187 0.0 0.0 0.00 0.00 0.00 50 1014.9
20260906042627 86 187 0.0 0.0 0.00 0.00 0.00 50 1014.9
20260906042121 86 187 0.0 0.0 0.00 0.00 0.00 50 1014.8
20260906041618 86 187 0.0 0.0 0.00 0.00 0.00 50 1014.9
20260906041118 86 188 0.0 0.0 0.00 0.00 0.00 50 1014.9
20260906040613 86 192 0.0 0.0 0.00 0.00 0.00 49 1014.7
20260906040109 86 192 0.0 0.0 0.00 0.00 0.00 49 1014.5
20260906035604 86 193 0.0 1.0 0.00 0.00 0.00 49 1014.7
20260906035059 87 195 0.0 0.0 0.00 0.00 0.00 49 1014.7
20260906034559 86 207 0.0 1.0 0.00 0.00 0.00 48 1014.8
20260906034054 86 156 0.0 1.0 0.00 0.00 0.00 48 1014.5
20260906033549 86 191 0.0 1.0 0.00 0.00 0.00 49 1014.3
20260906033045 86 191 0.0 0.0 0.00 0.00 0.00 50 1014.2
20260906032541 86 209 0.0 0.0 0.00 0.00 0.00 51 1014.3
20260906032036 86 193 1.0 1.0 0.00 0.00 0.00 50 1014.4
20260906031532 86 205 0.0 0.0 0.00 0.00 0.00 50 1014.3
20260906031027 87 218 0.0 0.0 0.00 0.00 0.00 50 1014.2
20260906030526 87 188 0.0 0.0 0.00 0.00 0.00 49 1014.4
20260906030026 86 182 0.0 0.0 0.00 0.00 0.00 49 1014.3
20260906025526 87 185 0.0 0.0 0.00 0.00 0.00 50 1014.4
20260906025024 87 185 0.0 0.0 0.00 0.00 0.00 48 1014.2
20260906024519 86 186 0.0 0.0 0.00 0.00 0.00 49 1014.3
20260906024019 85 186 0.0 0.0 0.00 0.00 0.00 50 1013.9
20260906023516 84 186 0.0 0.0 0.00 0.00 0.00 53 1014.1
20260906023010 85 186 0.0 0.0 0.00 0.00 0.00 54 1014.0
20260906022506 85 186 0.0 0.0 0.00 0.00 0.00 53 1014.0
20260906022001 87 186 0.0 0.0 0.00 0.00 0.00 52 1013.7
20260906021456 87 186 0.0 0.0 0.00 0.00 0.00 49 1013.7
20260906020950 88 186 0.0 0.0 0.00 0.00 0.00 47 1013.6
20260906020444 89 186 0.0 0.0 0.00 0.00 0.00 46 1013.4
20260906015944 88 186 0.0 0.0 0.00 0.00 0.00 46 1013.4
20260906015443 88 186 0.0 0.0 0.00 0.00 0.00 47 1013.6
20260906014943 89 186 0.0 0.0 0.00 0.00 0.00 45 1013.3
20260906014438 88 186 0.0 0.0 0.00 0.00 0.00 46 1013.3
20260906013934 89 186 0.0 0.0 0.00 0.00 0.00 48 1013.2
20260906013429 89 186 0.0 0.0 0.00 0.00 0.00 46 1013.0
20260906012925 89 186 0.0 0.0 0.00 0.00 0.00 46 1013.1
20260906012425 89 186 0.0 0.0 0.00 0.00 0.00 44 1013.0
20260906011924 90 186 0.0 0.0 0.00 0.00 0.00 44 1012.8
20260906011420 90 186 0.0 0.0 0.00 0.00 0.00 44 1012.9
20260906010915 91 186 0.0 0.0 0.00 0.00 0.00 42 1013.1
20260906010410 91 186 0.0 0.0 0.00 0.00 0.00 41 1012.8
20260906005906 92 186 0.0 0.0 0.00 0.00 0.00 42 1012.6
20260906005406 92 186 0.0 0.0 0.00 0.00 0.00 41 1012.7
20260906004905 93 186 0.0 0.0 0.00 0.00 0.00 41 1012.6
20260906004405 93 187 0.0 1.0 0.00 0.00 0.00 40 1012.7
20260906003900 93 191 0.0 0.0 0.00 0.00 0.00 40 1012.9
20260906003355 93 197 0.0 0.0 0.00 0.00 0.00 40 1012.7
20260906002851 93 197 0.0 0.0 0.00 0.00 0.00 40 1012.7
20260906002350 94 198 0.0 0.0 0.00 0.00 0.00 39 1012.7
20260906001846 94 210 0.0 0.0 0.00 0.00 0.00 39 1012.9
20260906001341 94 216 0.0 1.0 0.00 0.00 0.00 39 1012.7
20260906000836 94 214 0.0 1.0 0.00 0.00 0.00 39 1012.7
20260906000336 95 219 0.0 1.0 0.00 0.00 0.00 39 1012.6
20260905235836 96 199 0.0 0.0 0.00 0.00 0.00 39 1012.8
20260905235331 96 208 0.0 0.0 0.00 0.00 0.00 37 1012.7
20260905234826 96 222 1.0 1.0 0.00 0.00 0.00 37 1012.9
20260905234322 97 214 2.0 3.0 0.00 0.00 0.00 35 1012.8
20260905233816 98 221 2.0 3.0 0.00 0.00 0.00 35 1013.0
20260905233312 99 257 3.0 3.0 0.00 0.00 0.00 34 1012.7
20260905232811 100 219 3.0 3.0 0.00 0.00 0.00 33 1012.7
20260905232307 102 208 3.0 3.0 0.00 0.00 0.00 30 1012.7
20260905231802 101 214 1.0 1.0 0.00 0.00 0.00 30 1012.7
20260905231257 102 155 1.0 1.0 0.00 0.00 0.00 29 1012.7
20260905230754 102 233 3.0 3.0 0.00 0.00 0.00 30 1012.8
20260905230251 103 190 2.0 3.0 0.00 0.00 0.00 29 1012.6
20260905225751 103 223 3.0 3.0 0.00 0.00 0.00 30 1012.8
20260905225246 103 205 1.0 1.0 0.00 0.00 0.00 29 1012.6
20260905224745 102 217 2.0 2.0 0.00 0.00 0.00 31 1012.7
20260905224241 102 216 3.0 4.0 0.00 0.00 0.00 30 1012.7
20260905223737 100 220 2.0 3.0 0.00 0.00 0.00 33 1012.9
20260905223234 101 229 4.0 4.0 0.00 0.00 0.00 31 1012.7
20260905222729 103 220 2.0 3.0 0.00 0.00 0.00 29 1012.7
20260905222228 104 218 2.0 3.0 0.00 0.00 0.00 30 1012.6
20260905221724 104 198 1.0 1.0 0.00 0.00 0.00 30 1012.7
20260905221221 104 248 2.0 2.0 0.00 0.00 0.00 28 1012.5
20260905220717 103 201 4.0 4.0 0.00 0.00 0.00 29 1012.6
20260905220212 102 222 3.0 4.0 0.00 0.00 0.00 30 1012.5
20260905215712 102 230 5.0 6.0 0.00 0.00 0.00 31 1012.6
20260905215208 103 251 2.0 3.0 0.00 0.00 0.00 31 1012.7
20260905214704 103 224 7.0 11.0 0.00 0.00 0.00 30 1012.4
20260905214158 103 220 5.0 6.0 0.00 0.00 0.00 31 1012.7
20260905213654 103 193 3.0 3.0 0.00 0.00 0.00 29 1012.7
20260905213149 104 208 3.0 3.0 0.00 0.00 0.00 29 1012.7
20260905212644 104 193 5.0 6.0 0.00 0.00 0.00 29 1012.7
20260905212144 104 202 2.0 3.0 0.00 0.00 0.00 30 1012.7
20260905211638 104 221 5.0 6.0 0.00 0.00 0.00 31 1012.7
20260905211134 104 260 2.0 3.0 0.00 0.00 0.00 30 1012.9
20260905210631 104 215 2.0 3.0 0.00 0.00 0.00 28 1012.8
20260905210125 103 224 2.0 3.0 0.00 0.00 0.00 30 1013.3
20260905205624 102 228 2.0 3.0 0.00 0.00 0.00 30 1013.1
20260905205124 103 228 2.0 2.0 0.00 0.00 0.00 29 1013.4
20260905204623 104 207 4.0 4.0 0.00 0.00 0.00 30 1013.2
20260905204119 105 194 6.0 9.0 0.00 0.00 0.00 30 1013.4
20260905203619 104 217 0.0 1.0 0.00 0.00 0.00 32 1013.4
20260905203114 103 226 4.0 6.0 0.00 0.00 0.00 32 1013.6
20260905202610 104 225 4.0 6.0 0.00 0.00 0.00 31 1013.6
20260905202105 104 212 0.0 0.0 0.00 0.00 0.00 31 1014.0
20260905201601 104 258 4.0 7.0 0.00 0.00 0.00 32 1013.8
20260905201100 102 225 1.0 1.0 0.00 0.00 0.00 32 1013.9
20260905200556 100 231 2.0 2.0 0.00 0.00 0.00 33 1014.0
20260905200050 101 216 5.0 6.0 0.00 0.00 0.00 33 1014.0
20260905195549 102 231 5.0 7.0 0.00 0.00 0.00 32 1014.2
20260905195045 103 235 4.0 6.0 0.00 0.00 0.00 33 1013.9
20260905194545 103 226 5.0 6.0 0.00 0.00 0.00 31 1014.2